Lumberton, NC

4:44 AM EDT on August 19, 2017 (GMT -0400)
Lumberton Municipal

Weather History for KLBT - June, 2014

Change the Weather History Date:

Tuesday, June 17, 2014

  Actual Average Record
Temperature  
Mean Temperature 84 °F 78 °F  
Max Temperature 97 °F 89 °F 101 °F (2015)
Min Temperature 70 °F 68 °F 55 °F (2012)
Degree Days  
Heating Degree Days 0 0  
Month to date heating degree days 0 0  
Since 1 June heating degree days 0 0  
Since 1 July heating degree days 2945 2761  
Cooling Degree Days 19 13  
Month to date cooling degree days 244 197  
Year to date cooling degree days 532 447  
Since 1 June cooling degree days 244 197  
Growing Degree Days 33 (Base 50)    
Moisture  
Dew Point 67 °F    
Average Humidity 68    
Maximum Humidity 100    
Minimum Humidity 35    
Precipitation  
Precipitation T in 0.13 in 0.92 in (2013)
Month to date precipitation 1.26 2.62  
Year to date precipitation 18.52 17.69  
Sea Level Pressure  
Sea Level Pressure 30.13 in    
Wind  
Wind Speed 6 mph (SW)    
Max Wind Speed 30 mph    
Max Gust Speed 40 mph    
Visibility 9 miles    
Events Thunderstorm    
T = Trace of Precipitation, MM = Missing Value Source: NWS Daily Summary

Daily Weather History Graph

Daily Weather History Graph

Search for Another Location

Airport or City:

Trip Planner

Search our weather history database for the weather conditions in past years. The results will help you decide how hot, cold, wet, or windy it might be!

Date:

Astronomy

Jun. 17, 2014 Rise Set
Actual Time 6:03 AM EDT 8:31 PM EDT
Civil Twilight 5:33 AM EDT 9:00 PM EDT
Nautical Twilight 4:57 AM EDT 9:37 PM EDT
Astronomical Twilight 4:17 AM EDT 10:17 PM EDT
Moon No Moon Rise 11:04 AM EDT (6/17)
Length of Visible Light 15h 27m
Length of Day
14h 28m
Waning Gibbous, 73% of the Moon is Illuminated
Jun 17
Waning Gibbous
Jun 19
Last Quarter
Jun 27
New
Jul 5
First Quarter
Jul 12
Full

Hourly Weather History & Observations

Time (EDT) Temp. Heat Index Dew Point Humidity Pressure Visibility Wind Dir Wind Speed Gust Speed Precip Events Conditions
12:54 AM 75.0 °F - 69.1 °F 82% 30.15 in 10.0 mi SSW 3.5 mph - N/A   Clear
1:54 AM 75.0 °F - 70.0 °F 84% 30.14 in 10.0 mi Calm Calm - N/A   Clear
3:54 AM 72.0 °F - 70.0 °F 93% 30.13 in 9.0 mi SSW 3.5 mph - N/A   Clear
4:54 AM 72.0 °F - 69.1 °F 91% 30.14 in 7.0 mi Calm Calm - N/A   Clear
5:54 AM 70.0 °F - 69.1 °F 97% 30.15 in 5.0 mi Calm Calm - N/A   Clear
6:30 AM 71.1 °F - 69.1 °F 93% 30.16 in 2.5 mi Calm Calm - N/A   Clear
6:38 AM 71.1 °F - 69.1 °F 93% 30.16 in 3.0 mi Calm Calm - N/A   Clear
7:54 AM 75.9 °F - 71.1 °F 85% 30.17 in 8.0 mi SW 5.8 mph - N/A   Clear
8:54 AM 82.0 °F 86.3 °F 71.1 °F 69% 30.17 in 10.0 mi West 10.4 mph - N/A   Clear
9:54 AM 86.0 °F 90.1 °F 69.1 °F 57% 30.18 in 10.0 mi WSW 6.9 mph - N/A   Clear
10:54 AM 88.0 °F 92.1 °F 69.1 °F 53% 30.17 in 10.0 mi SW 8.1 mph - N/A   Clear
11:54 AM 91.9 °F 95.9 °F 68.0 °F 45% 30.16 in 10.0 mi SW 9.2 mph - N/A   Clear
12:54 PM 93.0 °F 95.9 °F 66.0 °F 41% 30.14 in 10.0 mi North - - N/A   Clear
1:54 PM 96.1 °F 98.8 °F 64.9 °F 36% 30.13 in 10.0 mi SW 8.1 mph - N/A   Scattered Clouds
2:54 PM 93.9 °F 96.1 °F 64.9 °F 38% 30.11 in 10.0 mi WSW 6.9 mph - N/A   Partly Cloudy
3:54 PM 93.9 °F 96.1 °F 64.9 °F 38% 30.08 in 10.0 mi SW 10.4 mph - N/A   Scattered Clouds
4:54 PM 96.1 °F 98.3 °F 64.0 °F 35% 30.07 in 10.0 mi South 4.6 mph - N/A   Clear
5:54 PM 93.9 °F 96.1 °F 64.9 °F 38% 30.07 in 10.0 mi South 10.4 mph - N/A   Clear
6:54 PM 90.0 °F 91.7 °F 64.9 °F 43% 30.09 in 10.0 mi North - - N/A Thunderstorm Partly Cloudy
7:40 PM 78.1 °F - 64.0 °F 62% 30.16 in 10.0 mi NW 23.0 mph 34.5 mph N/A Thunderstorm Thunderstorm
7:54 PM 75.0 °F - 66.0 °F 73% 30.17 in 10.0 mi WNW 26.5 mph 40.3 mph N/A Thunderstorm Mostly Cloudy
8:31 PM 73.0 °F - 66.0 °F 79% 30.13 in 10.0 mi WSW 4.6 mph - 0.00 in   Clear
8:54 PM 73.0 °F - 66.0 °F 79% 30.11 in 10.0 mi SW 9.2 mph - 0.00 in   Clear
9:54 PM 77.0 °F - 66.0 °F 69% 30.11 in 10.0 mi SW 6.9 mph - N/A   Clear
10:54 PM 75.9 °F - 66.9 °F 74% 30.13 in 10.0 mi Calm Calm - N/A   Clear
11:54 PM 75.9 °F - 66.0 °F 71% 30.12 in 10.0 mi South 4.6 mph - N/A   Clear